Location: Munkebjergskolens Observatorium
(55.3864°N, 10.3987°E)
Time: 23:32:12
(UTC+01:00)

DELTA 1 DEB - Pass Details

Date: 11 December 2023
Orbit: 783 x 826 km, 98.9° (Epoch: 04 March)

Event Time Altitude Azimuth Distance (km) Brightness Sun altitude
Rises 19:32:30 0° 216° (SW) 3,309 ? -30.2°
Reaches altitude 10° 19:35:46 10° 237° (WSW) 2,393 ? -30.6°
Maximum altitude 19:38:59 16° 275° (W) 2,007 ? -31.1°
Drops below altitude 10° 19:42:15 10° 313° (NW) 2,421 ? -31.5°
Sets 19:45:35 0° 334° (NNW) 3,367 ? -32.0°
